User: anonymous   Login
Location: Joplin
(37.0842°N, 94.5131°W)
Time: 09:22:48
(UTC-05:00)
Language:

Gurwin Techsat 1B - Orbit

View from above orbital plane
View from above orbital plane
View from above satellite
View from above satellite

Ground track
Ground track

The orbit data is extracted from the following two-line orbital elements,

1 25397U 98043D   19139.89066447 -.00000020  00000-0  10531-4 0  9994
2 25397  98.6871  80.3990 0002315 106.7514 253.3918 14.23665324 83638
Epoch (UTC): 19 May 2019 21:22:33
Eccentricity: 0.0002315
inclination: 98.6871°
perigee height: 811 km
apogee height: 814 km
right ascension of ascending node: 80.3990°
argument of perigee: 106.7514°
revolutions per day: 14.23665324
mean anomaly at epoch: 253.3918°
orbit number at epoch: 8363

The dashed part of the orbit path shows where the satellite is in the earth's shadow,  

DLR